DLH4PH EDDF-EGLL

Flight info

Callsign DLH4PH
Flight time 1h 10m
Altitude 38000
Route OBOKA3W/25C OBOKA Z29 TORNU DCT ABNED L980 LOGAN
Aircraft A321/M-SDE2E3FGIJ1LORWXYZ/HB1

Departure

Time 2026-05-07 16:45
Airport Frankfurt Main Airport (EDDF)

Arrival

Time 2026-05-07 17:56
Airport London Heathrow Airport (EGLL)
Time Latitude Longitude Altitude Speed Heading
2026-05-07 16:08 50.04468 8.56484 363 ft 0 kts 159°
2026-05-07 16:33 50.04469 8.56483 356 ft 1 kts 159°
2026-05-07 16:34 50.04484 8.56474 363 ft 3 kts 159°
2026-05-07 16:34 50.04503 8.56464 360 ft 3 kts 164°
2026-05-07 16:34 50.04522 8.56458 359 ft 3 kts 187°
2026-05-07 16:34 50.04535 8.56464 362 ft 2 kts 242°
2026-05-07 16:35 50.04537 8.56467 364 ft 1 kts 249°
2026-05-07 16:35 50.04531 8.56443 363 ft 3 kts 249°
2026-05-07 16:35 50.04524 8.56413 356 ft 3 kts 249°
2026-05-07 16:35 50.04518 8.56389 356 ft 1 kts 249°
2026-05-07 16:36 50.04518 8.56387 356 ft 0 kts 249°
2026-05-07 16:38 50.04516 8.56379 356 ft 2 kts 249°
2026-05-07 16:38 50.04505 8.56336 360 ft 7 kts 249°
2026-05-07 16:38 50.04485 8.56250 364 ft 10 kts 249°
2026-05-07 16:39 50.04458 8.56141 357 ft 12 kts 249°
2026-05-07 16:39 50.04425 8.56042 356 ft 10 kts 217°
2026-05-07 16:39 50.04358 8.56047 361 ft 6 kts 159°
2026-05-07 16:39 50.04354 8.56049 360 ft 0 kts 159°
2026-05-07 16:40 50.04354 8.56050 360 ft 1 kts 159°
2026-05-07 16:40 50.04332 8.56062 360 ft 6 kts 159°
2026-05-07 16:40 50.04294 8.56118 359 ft 9 kts 105°
2026-05-07 16:40 50.04272 8.56217 355 ft 11 kts 139°
2026-05-07 16:41 50.04200 8.56262 355 ft 11 kts 160°
2026-05-07 16:41 50.04148 8.56343 355 ft 12 kts 92°
2026-05-07 16:41 50.04174 8.56474 360 ft 13 kts 70°
2026-05-07 16:41 50.04207 8.56611 360 ft 14 kts 69°
2026-05-07 16:42 50.04240 8.56752 358 ft 14 kts 69°
2026-05-07 16:42 50.04273 8.56890 364 ft 14 kts 69°
2026-05-07 16:42 50.04310 8.57045 365 ft 14 kts 69°
2026-05-07 16:42 50.04344 8.57188 363 ft 15 kts 71°
2026-05-07 16:43 50.04382 8.57347 363 ft 17 kts 69°
2026-05-07 16:43 50.04406 8.57446 363 ft 14 kts 69°
2026-05-07 16:43 50.04432 8.57566 368 ft 10 kts 80°
2026-05-07 16:43 50.04387 8.57656 365 ft 10 kts 160°
2026-05-07 16:44 50.04306 8.57694 364 ft 14 kts 180°
2026-05-07 16:44 50.04267 8.57657 368 ft 8 kts 238°
2026-05-07 16:44 50.04254 8.57611 368 ft 0 kts 249°
2026-05-07 16:44 50.04252 8.57603 368 ft 1 kts 249°
2026-05-07 16:45 50.04225 8.57491 370 ft 39 kts 249°
2026-05-07 16:45 50.04035 8.56699 359 ft 117 kts 250°
2026-05-07 16:45 50.03678 8.55197 479 ft 164 kts 249°
2026-05-07 16:45 50.03288 8.53569 1359 ft 160 kts 250°
2026-05-07 16:46 50.02894 8.51945 2106 ft 164 kts 251°
2026-05-07 16:46 50.02455 8.50188 2523 ft 183 kts 245°
2026-05-07 16:46 50.01517 8.48684 2901 ft 207 kts 213°
2026-05-07 16:46 50.00144 8.47889 3452 ft 216 kts 191°
2026-05-07 16:47 49.98647 8.47580 4138 ft 217 kts 188°
2026-05-07 16:47 49.97141 8.47307 4847 ft 218 kts 189°
2026-05-07 16:47 49.95646 8.46914 5450 ft 222 kts 198°
2026-05-07 16:47 49.94087 8.46187 5676 ft 246 kts 199°
2026-05-07 16:48 49.92448 8.45222 6344 ft 253 kts 211°
2026-05-07 16:48 49.91065 8.43577 7221 ft 250 kts 228°
2026-05-07 16:48 49.90052 8.41417 7986 ft 253 kts 244°
2026-05-07 16:48 49.89259 8.38990 8872 ft 253 kts 246°
2026-05-07 16:49 49.88717 8.36372 9654 ft 258 kts 261°
2026-05-07 16:49 49.88678 8.33492 10081 ft 275 kts 275°
2026-05-07 16:49 49.88844 8.30454 10466 ft 293 kts 275°
2026-05-07 16:49 49.89211 8.27225 10664 ft 316 kts 288°
2026-05-07 16:50 49.90226 8.24070 10803 ft 339 kts 304°
2026-05-07 16:50 49.91662 8.21056 11158 ft 352 kts 307°
2026-05-07 16:50 49.93139 8.17981 11784 ft 357 kts 306°
2026-05-07 16:50 49.94792 8.15075 12414 ft 362 kts 316°
2026-05-07 16:51 49.96724 8.12457 12672 ft 377 kts 318°
2026-05-07 16:51 49.98737 8.09776 12869 ft 392 kts 319°
2026-05-07 16:51 50.00833 8.06990 13351 ft 398 kts 319°
2026-05-07 16:51 50.02948 8.04175 13914 ft 402 kts 319°
2026-05-07 16:52 50.05079 8.01329 14427 ft 405 kts 318°
2026-05-07 16:52 50.07225 7.98454 14958 ft 408 kts 318°
2026-05-07 16:52 50.09381 7.95561 15483 ft 411 kts 318°
2026-05-07 16:52 50.11554 7.92639 16005 ft 414 kts 318°
2026-05-07 16:53 50.13713 7.89729 16520 ft 417 kts 318°
2026-05-07 16:53 50.15915 7.86757 17035 ft 420 kts 318°
2026-05-07 16:53 50.18137 7.83756 17535 ft 423 kts 318°
2026-05-07 16:53 50.20375 7.80731 18025 ft 427 kts 318°
2026-05-07 16:54 50.22628 7.77685 18491 ft 430 kts 318°
2026-05-07 16:54 50.24968 7.74754 18908 ft 434 kts 324°
2026-05-07 16:54 50.27590 7.72375 19326 ft 438 kts 333°
2026-05-07 16:54 50.30399 7.70444 19755 ft 441 kts 335°
2026-05-07 16:55 50.33190 7.68544 20206 ft 443 kts 335°
2026-05-07 16:55 50.36032 7.66598 20648 ft 446 kts 335°
2026-05-07 16:55 50.38881 7.64638 21093 ft 448 kts 335°
2026-05-07 16:55 50.41751 7.62662 21527 ft 451 kts 335°
2026-05-07 16:56 50.44632 7.60677 21964 ft 453 kts 335°
2026-05-07 16:56 50.47533 7.58676 22397 ft 456 kts 335°
2026-05-07 16:56 50.53341 7.54665 23213 ft 461 kts 335°
2026-05-07 16:57 50.56237 7.52469 23568 ft 462 kts 329°
2026-05-07 16:57 50.58957 7.49771 23868 ft 463 kts 326°
2026-05-07 16:57 50.61659 7.47001 24159 ft 465 kts 326°
2026-05-07 16:57 50.64379 7.44205 24423 ft 467 kts 325°
2026-05-07 16:58 50.67112 7.41387 24648 ft 470 kts 325°
2026-05-07 16:58 50.69858 7.38553 24896 ft 471 kts 324°
2026-05-07 16:58 50.72414 7.35442 25214 ft 468 kts 316°
2026-05-07 16:58 50.74655 7.31733 25553 ft 465 kts 308°
2026-05-07 16:59 50.76498 7.27553 25895 ft 463 kts 299°
2026-05-07 16:59 50.77994 7.23068 26239 ft 461 kts 296°
2026-05-07 16:59 50.79458 7.18555 26595 ft 460 kts 296°
2026-05-07 16:59 50.80919 7.14060 26946 ft 459 kts 296°
2026-05-07 17:00 50.82379 7.09569 27306 ft 458 kts 296°
2026-05-07 17:00 50.83834 7.05084 27667 ft 457 kts 296°
2026-05-07 17:00 50.85284 7.00606 28041 ft 456 kts 296°
2026-05-07 17:00 50.86730 6.96135 28403 ft 455 kts 296°
2026-05-07 17:01 50.88170 6.91670 28792 ft 454 kts 296°
2026-05-07 17:01 50.89585 6.87278 29188 ft 453 kts 296°
2026-05-07 17:01 50.91022 6.82808 29574 ft 452 kts 296°
2026-05-07 17:01 50.92447 6.78360 29954 ft 452 kts 296°
2026-05-07 17:02 50.93867 6.73915 30297 ft 451 kts 296°
2026-05-07 17:02 50.95278 6.69487 30621 ft 450 kts 296°
2026-05-07 17:02 50.96689 6.65060 30934 ft 449 kts 296°
2026-05-07 17:02 50.98097 6.60637 31259 ft 448 kts 296°
2026-05-07 17:03 50.99497 6.56230 31592 ft 447 kts 296°
2026-05-07 17:03 51.00877 6.51877 31929 ft 446 kts 296°
2026-05-07 17:03 51.02266 6.47481 32244 ft 445 kts 295°
2026-05-07 17:03 51.03651 6.43084 32558 ft 444 kts 295°
2026-05-07 17:04 51.05030 6.38694 32885 ft 443 kts 295°
2026-05-07 17:04 51.06405 6.34323 33204 ft 442 kts 295°
2026-05-07 17:04 51.07777 6.29960 33520 ft 441 kts 295°
2026-05-07 17:04 51.09149 6.25586 33841 ft 440 kts 295°
2026-05-07 17:05 51.10515 6.21227 34135 ft 439 kts 295°
2026-05-07 17:05 51.11860 6.16928 34371 ft 439 kts 295°
2026-05-07 17:05 51.13223 6.12555 34595 ft 439 kts 294°
2026-05-07 17:05 51.14330 6.08026 34800 ft 438 kts 285°
2026-05-07 17:06 51.15107 6.03327 34995 ft 439 kts 283°
2026-05-07 17:06 51.15867 5.98608 35207 ft 439 kts 283°
2026-05-07 17:06 51.16630 5.93893 35403 ft 440 kts 283°
2026-05-07 17:06 51.17396 5.89174 35615 ft 440 kts 283°
2026-05-07 17:07 51.18179 5.84455 35818 ft 441 kts 286°
2026-05-07 17:07 51.19264 5.79870 36023 ft 443 kts 291°
2026-05-07 17:07 51.20471 5.75344 36215 ft 444 kts 291°
2026-05-07 17:07 51.21660 5.70864 36401 ft 445 kts 291°
2026-05-07 17:08 51.22858 5.66316 36598 ft 445 kts 291°
2026-05-07 17:08 51.24055 5.61750 36795 ft 445 kts 291°
2026-05-07 17:08 51.25248 5.57189 36983 ft 446 kts 291°
2026-05-07 17:08 51.26446 5.52614 37172 ft 446 kts 291°
2026-05-07 17:09 51.27639 5.48042 37347 ft 446 kts 291°
2026-05-07 17:09 51.28834 5.43454 37515 ft 447 kts 291°
2026-05-07 17:09 51.30014 5.38917 37677 ft 447 kts 291°
2026-05-07 17:09 51.31209 5.34319 37836 ft 447 kts 291°
2026-05-07 17:10 51.32399 5.29728 38010 ft 447 kts 291°
2026-05-07 17:10 51.33593 5.25126 38095 ft 450 kts 290°
2026-05-07 17:10 51.35987 5.15856 38080 ft 452 kts 290°
2026-05-07 17:11 51.38381 5.06542 38079 ft 452 kts 290°
2026-05-07 17:11 51.40769 4.97217 38082 ft 452 kts 290°
2026-05-07 17:12 51.43129 4.87949 38083 ft 452 kts 290°
2026-05-07 17:12 51.45500 4.78602 38105 ft 452 kts 290°
2026-05-07 17:13 51.47865 4.69222 38101 ft 453 kts 290°
2026-05-07 17:13 51.50214 4.59899 38107 ft 453 kts 290°
2026-05-07 17:14 51.52578 4.50496 38105 ft 454 kts 290°
2026-05-07 17:14 51.54939 4.41060 38105 ft 454 kts 290°
2026-05-07 17:15 51.57269 4.31679 38104 ft 454 kts 290°
2026-05-07 17:15 51.59605 4.22227 38108 ft 454 kts 290°
2026-05-07 17:16 51.61939 4.12748 38110 ft 455 kts 290°
2026-05-07 17:16 51.64248 4.03333 38105 ft 454 kts 290°
2026-05-07 17:17 51.66568 3.93854 38104 ft 454 kts 290°
2026-05-07 17:17 51.68875 3.84362 38109 ft 454 kts 289°
2026-05-07 17:18 51.71174 3.74854 38109 ft 454 kts 289°
2026-05-07 17:18 51.73454 3.65392 38110 ft 454 kts 289°
2026-05-07 17:19 51.75742 3.55869 38114 ft 454 kts 289°
2026-05-07 17:19 51.78021 3.46334 38114 ft 455 kts 289°
2026-05-07 17:20 51.80275 3.36853 38116 ft 455 kts 289°
2026-05-07 17:20 51.82534 3.27295 38119 ft 455 kts 289°
2026-05-07 17:21 51.84336 3.17533 38120 ft 452 kts 276°
2026-05-07 17:21 51.84297 3.07492 38114 ft 449 kts 263°
2026-05-07 17:22 51.83633 2.97431 38115 ft 449 kts 263°
2026-05-07 17:22 51.82977 2.87372 37733 ft 450 kts 263°
2026-05-07 17:23 51.82646 2.82364 37199 ft 447 kts 263°
2026-05-07 17:23 51.82311 2.77377 36675 ft 446 kts 263°
2026-05-07 17:23 51.81976 2.72406 36166 ft 445 kts 263°
2026-05-07 17:23 51.81640 2.67434 35664 ft 444 kts 263°
2026-05-07 17:24 51.81303 2.62474 35171 ft 444 kts 263°
2026-05-07 17:24 51.80961 2.57522 34688 ft 443 kts 263°
2026-05-07 17:24 51.80617 2.52577 34215 ft 443 kts 263°
2026-05-07 17:24 51.80270 2.47633 33679 ft 442 kts 263°
2026-05-07 17:25 51.79920 2.42687 33131 ft 443 kts 263°
2026-05-07 17:25 51.79573 2.37800 32598 ft 444 kts 263°
2026-05-07 17:25 51.79221 2.32836 32069 ft 445 kts 263°
2026-05-07 17:25 51.78866 2.27856 31534 ft 446 kts 263°
2026-05-07 17:26 51.78506 2.22869 31030 ft 446 kts 263°
2026-05-07 17:26 51.78163 2.17889 30525 ft 446 kts 263°
2026-05-07 17:26 51.77859 2.12904 30009 ft 446 kts 264°
2026-05-07 17:26 51.77577 2.07902 29431 ft 447 kts 264°
2026-05-07 17:27 51.77300 2.02898 28860 ft 448 kts 264°
2026-05-07 17:27 51.77017 1.97874 28302 ft 450 kts 264°
2026-05-07 17:27 51.76727 1.92901 27768 ft 451 kts 264°
2026-05-07 17:27 51.76423 1.87836 27236 ft 452 kts 264°
2026-05-07 17:28 51.76113 1.82775 26709 ft 454 kts 264°
2026-05-07 17:28 51.75797 1.77686 26191 ft 455 kts 264°
2026-05-07 17:28 51.75477 1.72587 25682 ft 457 kts 263°
2026-05-07 17:28 51.75151 1.67465 25067 ft 459 kts 263°
2026-05-07 17:29 51.74824 1.62325 24461 ft 459 kts 263°
2026-05-07 17:29 51.74504 1.57280 23870 ft 457 kts 263°
2026-05-07 17:29 51.74182 1.52186 23218 ft 454 kts 263°
2026-05-07 17:29 51.73862 1.47131 22528 ft 450 kts 263°
2026-05-07 17:30 51.73543 1.42118 21857 ft 446 kts 263°
2026-05-07 17:30 51.73223 1.37158 21199 ft 442 kts 263°
2026-05-07 17:30 51.73010 1.33899 20772 ft 440 kts 263°
2026-05-07 17:30 51.72582 1.27420 19933 ft 435 kts 263°
2026-05-07 17:31 51.72259 1.22574 19317 ft 432 kts 263°
2026-05-07 17:31 51.71939 1.17772 18712 ft 429 kts 263°
2026-05-07 17:31 51.71727 1.14607 18308 ft 427 kts 263°
2026-05-07 17:31 51.71298 1.08270 17400 ft 423 kts 263°
2026-05-07 17:32 51.71086 1.05161 16964 ft 420 kts 263°
2026-05-07 17:32 51.70767 1.00484 16368 ft 417 kts 263°
2026-05-07 17:32 51.70448 0.95844 15909 ft 416 kts 262°
2026-05-07 17:32 51.70129 0.91214 15464 ft 413 kts 262°
2026-05-07 17:33 51.69812 0.86624 15014 ft 407 kts 262°
2026-05-07 17:33 51.69506 0.82232 14750 ft 388 kts 262°
2026-05-07 17:33 51.69213 0.78032 14618 ft 364 kts 262°
2026-05-07 17:33 51.68935 0.74090 14490 ft 344 kts 261°
2026-05-07 17:34 51.68674 0.70390 14370 ft 322 kts 262°
2026-05-07 17:34 51.68426 0.66884 14212 ft 308 kts 261°
2026-05-07 17:34 51.68182 0.63493 13946 ft 301 kts 261°
2026-05-07 17:34 51.67940 0.60175 13881 ft 299 kts 261°
2026-05-07 17:35 51.67690 0.56835 13781 ft 300 kts 261°
2026-05-07 17:35 51.67441 0.53495 13652 ft 301 kts 261°
2026-05-07 17:35 51.67197 0.50150 13516 ft 299 kts 261°
2026-05-07 17:35 51.66955 0.46814 13360 ft 299 kts 261°
2026-05-07 17:36 51.66713 0.43488 13120 ft 298 kts 261°
2026-05-07 17:36 51.66475 0.40218 12922 ft 297 kts 261°
2026-05-07 17:36 51.66234 0.36902 12710 ft 303 kts 261°
2026-05-07 17:36 51.65967 0.33329 12446 ft 331 kts 261°
2026-05-07 17:37 51.65696 0.29717 12144 ft 316 kts 261°
2026-05-07 17:37 51.65443 0.26303 11857 ft 298 kts 261°
2026-05-07 17:37 51.65203 0.23019 11578 ft 291 kts 261°
2026-05-07 17:37 51.64968 0.19790 11299 ft 289 kts 261°
2026-05-07 17:38 51.64734 0.16625 11026 ft 287 kts 261°
2026-05-07 17:38 51.64498 0.13443 10754 ft 286 kts 261°
2026-05-07 17:38 51.64259 0.10269 10482 ft 284 kts 261°
2026-05-07 17:38 51.64022 0.07114 10210 ft 283 kts 261°
2026-05-07 17:39 51.63786 0.03973 9945 ft 281 kts 261°
2026-05-07 17:39 51.63550 0.00847 9647 ft 280 kts 261°
2026-05-07 17:39 51.63314 -0.02257 9356 ft 279 kts 261°
2026-05-07 17:39 51.63067 -0.05358 9063 ft 279 kts 261°
2026-05-07 17:40 51.62814 -0.08449 8771 ft 278 kts 261°
2026-05-07 17:40 51.62557 -0.11532 8482 ft 277 kts 261°
2026-05-07 17:40 51.62300 -0.14567 8199 ft 276 kts 261°
2026-05-07 17:40 51.62040 -0.17626 8046 ft 276 kts 261°
2026-05-07 17:41 51.61778 -0.20692 8056 ft 276 kts 261°
2026-05-07 17:41 51.61518 -0.23766 8056 ft 276 kts 261°
2026-05-07 17:41 51.61256 -0.26838 8058 ft 277 kts 261°
2026-05-07 17:41 51.60996 -0.29870 8058 ft 277 kts 261°
2026-05-07 17:42 51.60732 -0.32941 8057 ft 277 kts 261°
2026-05-07 17:42 51.60468 -0.36009 8057 ft 277 kts 261°
2026-05-07 17:42 51.60203 -0.39079 8057 ft 277 kts 261°
2026-05-07 17:42 51.59939 -0.42146 7973 ft 278 kts 261°
2026-05-07 17:43 51.59675 -0.45211 7639 ft 274 kts 261°
2026-05-07 17:43 51.59416 -0.48226 7301 ft 270 kts 261°
2026-05-07 17:43 51.59155 -0.51195 7075 ft 264 kts 261°
2026-05-07 17:43 51.58896 -0.54108 7058 ft 263 kts 261°
2026-05-07 17:44 51.58631 -0.57019 7053 ft 263 kts 261°
2026-05-07 17:44 51.58365 -0.59932 7057 ft 263 kts 261°
2026-05-07 17:44 51.58102 -0.62849 7053 ft 263 kts 261°
2026-05-07 17:44 51.57842 -0.65731 7050 ft 263 kts 261°
2026-05-07 17:45 51.57582 -0.68647 7052 ft 263 kts 261°
2026-05-07 17:45 51.57321 -0.71561 7049 ft 263 kts 261°
2026-05-07 17:45 51.57058 -0.74475 7049 ft 263 kts 261°
2026-05-07 17:45 51.56789 -0.77389 7041 ft 264 kts 261°
2026-05-07 17:46 51.56514 -0.80313 7047 ft 264 kts 261°
2026-05-07 17:46 51.56235 -0.83253 6714 ft 266 kts 261°
2026-05-07 17:46 51.55954 -0.86196 6335 ft 265 kts 261°
2026-05-07 17:46 51.55667 -0.89133 5937 ft 265 kts 261°
2026-05-07 17:47 51.55384 -0.92016 5537 ft 264 kts 261°
2026-05-07 17:47 51.55098 -0.94931 5155 ft 263 kts 261°
2026-05-07 17:47 51.54809 -0.97809 4975 ft 257 kts 258°
2026-05-07 17:47 51.54110 -1.00433 4732 ft 256 kts 231°
2026-05-07 17:48 51.52729 -1.02157 4364 ft 253 kts 201°
2026-05-07 17:48 51.51022 -1.02523 4033 ft 247 kts 169°
2026-05-07 17:48 51.49534 -1.01442 3974 ft 227 kts 137°
2026-05-07 17:48 51.48671 -0.99415 3978 ft 219 kts 114°
2026-05-07 17:49 51.48086 -0.97174 3982 ft 218 kts 111°
2026-05-07 17:49 51.47602 -0.94901 3980 ft 218 kts 99°
2026-05-07 17:49 51.47487 -0.92463 3991 ft 220 kts 90°
2026-05-07 17:49 51.47500 -0.90003 3995 ft 220 kts 89°
2026-05-07 17:50 51.47523 -0.87543 3995 ft 221 kts 89°
2026-05-07 17:50 51.47542 -0.85086 3997 ft 218 kts 89°
2026-05-07 17:50 51.47559 -0.82753 4007 ft 199 kts 89°
2026-05-07 17:50 51.47574 -0.80583 3961 ft 191 kts 90°
2026-05-07 17:51 51.47588 -0.78471 3776 ft 188 kts 90°
2026-05-07 17:51 51.47601 -0.76414 3564 ft 180 kts 90°
2026-05-07 17:51 51.47614 -0.74432 3313 ft 175 kts 90°
2026-05-07 17:51 51.47626 -0.72510 3083 ft 170 kts 90°
2026-05-07 17:52 51.47637 -0.70627 2851 ft 167 kts 90°
2026-05-07 17:52 51.47648 -0.68767 2627 ft 166 kts 91°
2026-05-07 17:52 51.47658 -0.66945 2405 ft 163 kts 91°
2026-05-07 17:52 51.47670 -0.65125 2175 ft 164 kts 91°
2026-05-07 17:53 51.47686 -0.63288 1934 ft 165 kts 91°
2026-05-07 17:53 51.47704 -0.61474 1764 ft 157 kts 92°
2026-05-07 17:53 51.47715 -0.59756 1502 ft 153 kts 92°
2026-05-07 17:53 51.47718 -0.58074 1344 ft 148 kts 91°
2026-05-07 17:54 51.47719 -0.56419 1105 ft 149 kts 92°
2026-05-07 17:54 51.47724 -0.54768 890 ft 145 kts 91°
2026-05-07 17:54 51.47738 -0.53169 687 ft 141 kts 92°
2026-05-07 17:54 51.47747 -0.51624 520 ft 139 kts 92°
2026-05-07 17:55 51.47749 -0.50070 322 ft 139 kts 93°
2026-05-07 17:55 51.47755 -0.48541 141 ft 135 kts 93°
2026-05-07 17:55 51.47751 -0.47151 87 ft 106 kts 90°
2026-05-07 17:55 51.47755 -0.46240 91 ft 60 kts 90°
2026-05-07 17:56 51.47757 -0.45817 87 ft 26 kts 89°
2026-05-07 17:56 51.47758 -0.45621 88 ft 12 kts 90°
2026-05-07 17:56 51.47728 -0.45488 89 ft 14 kts 142°
2026-05-07 17:56 51.47646 -0.45467 87 ft 10 kts 180°
2026-05-07 17:57 51.47578 -0.45468 87 ft 10 kts 180°
2026-05-07 17:57 51.47530 -0.45457 87 ft 9 kts 150°
2026-05-07 17:57 51.47508 -0.45312 90 ft 12 kts 91°
2026-05-07 17:57 51.47508 -0.45164 91 ft 14 kts 90°
2026-05-07 17:58 51.47508 -0.44993 91 ft 15 kts 90°
2026-05-07 17:58 51.47509 -0.44874 91 ft 9 kts 89°
2026-05-07 17:58 51.47509 -0.44752 91 ft 12 kts 89°
2026-05-07 17:58 51.47501 -0.44608 87 ft 11 kts 111°
2026-05-07 17:59 51.47428 -0.44561 87 ft 13 kts 178°
2026-05-07 17:59 51.47327 -0.44562 87 ft 16 kts 179°
2026-05-07 17:59 51.47215 -0.44561 87 ft 17 kts 180°
2026-05-07 17:59 51.47100 -0.44560 87 ft 16 kts 179°
2026-05-07 18:00 51.47040 -0.44583 89 ft 8 kts 248°
2026-05-07 18:00 51.47036 -0.44654 88 ft 3 kts 272°
2026-05-07 18:00 51.47036 -0.44667 89 ft 0 kts 272°